TimeEST,TemperatureF,Dew PointF,Humidity,Sea Level PressureIn,VisibilityMPH,Wind Direction,Wind SpeedMPH,Gust SpeedMPH,PrecipitationIn,Events,Conditions,WindDirDegrees,DateUTC
12:05 AM,41.0,35.6,81,29.68,10.0,Calm,Calm,-,N/A,,Overcast,0,2013-02-28 05:05:00
12:25 AM,37.4,35.6,93,29.67,10.0,West,3.5,-,N/A,,Overcast,260,2013-02-28 05:25:00
12:45 AM,41.0,33.8,76,29.67,10.0,WNW,5.8,-,N/A,,Mostly Cloudy,290,2013-02-28 05:45:00
1:05 AM,41.0,33.8,76,29.67,10.0,WNW,5.8,-,N/A,,Mostly Cloudy,290,2013-02-28 06:05:00
1:25 AM,41.0,35.6,81,29.67,10.0,WSW,4.6,-,N/A,,Overcast,240,2013-02-28 06:25:00
1:45 AM,41.0,35.6,81,29.68,10.0,SW,3.5,-,N/A,,Overcast,220,2013-02-28 06:45:00
2:05 AM,39.2,35.6,87,29.67,10.0,West,3.5,-,N/A,,Overcast,260,2013-02-28 07:05:00
2:25 AM,41.0,35.6,81,29.67,10.0,WSW,4.6,-,N/A,,Overcast,240,2013-02-28 07:25:00
2:45 AM,41.0,33.8,76,29.67,10.0,WSW,3.5,-,N/A,,Overcast,240,2013-02-28 07:45:00
3:05 AM,41.0,33.8,76,29.67,10.0,West,5.8,-,N/A,,Overcast,270,2013-02-28 08:05:00
3:25 AM,41.0,33.8,76,29.67,10.0,West,8.1,-,N/A,,Overcast,280,2013-02-28 08:25:00
3:45 AM,41.0,32.0,70,29.67,10.0,WNW,6.9,-,N/A,,Overcast,300,2013-02-28 08:45:00
4:05 AM,41.0,33.8,76,29.67,10.0,WNW,6.9,-,N/A,,Overcast,300,2013-02-28 09:05:00
4:25 AM,39.2,32.0,75,29.68,10.0,WNW,8.1,-,N/A,,Overcast,300,2013-02-28 09:25:00
4:45 AM,37.4,32.0,81,29.68,10.0,WNW,6.9,-,N/A,,Overcast,290,2013-02-28 09:45:00
5:05 AM,37.4,32.0,81,29.68,10.0,WNW,5.8,-,N/A,,Overcast,300,2013-02-28 10:05:00
5:25 AM,37.4,32.0,81,29.69,10.0,WNW,5.8,-,N/A,,Overcast,290,2013-02-28 10:25:00
5:45 AM,37.4,30.2,75,29.68,10.0,West,6.9,-,N/A,,Scattered Clouds,280,2013-02-28 10:45:00
6:50 AM,35.6,28.4,75,29.69,10.0,West,4.6,-,N/A,,Clear,280,2013-02-28 11:50:00
7:50 AM,37.4,30.2,75,29.70,10.0,Calm,Calm,-,N/A,,Scattered Clouds,0,2013-02-28 12:50:00
8:50 AM,42.8,28.4,57,29.71,10.0,West,11.5,-,N/A,,Scattered Clouds,260,2013-02-28 13:50:00
10:50 AM,44.6,28.4,53,29.69,10.0,West,13.8,20.7,N/A,,Mostly Cloudy,280,2013-02-28 15:50:00
11:50 AM,44.6,28.4,53,29.69,10.0,WNW,17.3,21.9,N/A,,Overcast,290,2013-02-28 16:50:00
1:45 PM,42.8,32.0,66,29.68,10.0,WNW,11.5,-,N/A,,Overcast,290,2013-02-28 18:45:00
2:45 PM,44.6,30.2,57,29.68,10.0,West,15.0,20.7,N/A,,Overcast,270,2013-02-28 19:45:00
3:46 PM,44.6,28.4,53,29.67,10.0,West,15.0,19.6,N/A,,Overcast,280,2013-02-28 20:46:00
4:45 PM,42.8,28.4,57,29.69,7.0,WNW,12.7,19.6,N/A,,Mostly Cloudy,300,2013-02-28 21:45:00
5:59 PM,39.2,32.0,75,29.72,10.0,NW,3.5,-,N/A,,Mostly Cloudy,320,2013-02-28 22:59:00
6:45 PM,39.2,30.2,70,29.72,10.0,WNW,8.1,-,N/A,,Overcast,290,2013-02-28 23:45:00
8:05 PM,39.2,30.2,70,29.74,10.0,West,8.1,-,N/A,,Overcast,280,2013-03-01 01:05:00
8:25 PM,39.2,30.2,70,29.74,10.0,West,8.1,-,N/A,,Overcast,270,2013-03-01 01:25:00
8:45 PM,39.2,30.2,70,29.74,10.0,West,8.1,-,N/A,,Overcast,270,2013-03-01 01:45:00
9:05 PM,39.2,30.2,70,29.75,10.0,West,9.2,-,N/A,,Overcast,280,2013-03-01 02:05:00
9:25 PM,39.2,30.2,70,29.75,10.0,West,8.1,-,N/A,,Overcast,280,2013-03-01 02:25:00
9:45 PM,39.2,32.0,75,29.75,10.0,West,9.2,-,N/A,,Overcast,280,2013-03-01 02:45:00
10:05 PM,39.2,32.0,75,29.75,10.0,West,9.2,-,N/A,,Overcast,270,2013-03-01 03:05:00
10:25 PM,39.2,32.0,75,29.75,10.0,West,9.2,-,N/A,,Overcast,270,2013-03-01 03:25:00
10:45 PM,39.2,32.0,75,29.75,10.0,WNW,6.9,-,N/A,,Overcast,290,2013-03-01 03:45:00
11:05 PM,39.2,32.0,75,29.75,10.0,WNW,8.1,-,N/A,,Overcast,290,2013-03-01 04:05:00
11:25 PM,39.2,32.0,75,29.74,10.0,WNW,8.1,-,N/A,,Overcast,290,2013-03-01 04:25:00
11:45 PM,37.4,32.0,81,29.74,10.0,West,4.6,-,N/A,,Overcast,280,2013-03-01 04:45:00